Location: Lucerne Valley
(34.4439°N, 116.9669°E)
Time: 17:20:52
(UTC-07:00)

N. Korean satellite - Pass Details

Date: 09 October 2017
Orbit: 459 x 517 km, 97.2° (Epoch: 17 October)

Event Time Altitude Azimuth Distance (km) Brightness Sun altitude
Rises 04:08:50 0° 201° (SSW) 2,578 10.5 -17.9°
Reaches altitude 10° 04:11:26 10° 220° (SW) 1,689 9.8 -18.5°
Maximum altitude 04:13:58 18° 265° (W) 1,267 9.6 -19.0°
Drops below altitude 10° 04:16:29 10° 309° (NW) 1,674 10.1 -19.5°
Sets 04:19:03 0° 329° (NNW) 2,547 10.7 -20.0°
